"datetime","# probes","# resolvers","can_ipv6","can_ipv6_prbs","can_tcp","can_tcp_prbs","can_tcp6","can_tcp6_prbs","does_ecs","does_ecs_prbs","does_flagday","does_flagday_prbs","does_rov4","does_rov4_prbs","does_rov6","does_rov6_prbs","does_qnamemin","doesnt_qnamemin","does_qnamemin_prbs","doesnt_qnamemin_prbs","does_nxdomain","doesnt_nxdomain","does_nxdomain_prbs","doesnt_nxdomain_prbs","has_ta_19036","hasnt_ta_19036","has_ta_19036_prbs","hasnt_ta_19036_prbs","has_ta_20326","hasnt_ta_20326","has_ta_20326_prbs","hasnt_ta_20326_prbs","can_rsamd5","cannot_rsamd5","broken_rsamd5","can_rsamd5_prbs","cannot_rsamd5_prbs","broken_rsamd5_prbs","can_dsa","cannot_dsa","broken_dsa","can_dsa_prbs","cannot_dsa_prbs","broken_dsa_prbs","can_rsasha1","cannot_rsasha1","broken_rsasha1","can_rsasha1_prbs","cannot_rsasha1_prbs","broken_rsasha1_prbs","can_dsansec3","cannot_dsansec3","broken_dsansec3","can_dsansec3_prbs","cannot_dsansec3_prbs","broken_dsansec3_prbs","can_rsansec3","cannot_rsansec3","broken_rsansec3","can_rsansec3_prbs","cannot_rsansec3_prbs","broken_rsansec3_prbs","can_rsasha256","cannot_rsasha256","broken_rsasha256","can_rsasha256_prbs","cannot_rsasha256_prbs","broken_rsasha256_prbs","can_rsasha512","cannot_rsasha512","broken_rsasha512","can_rsasha512_prbs","cannot_rsasha512_prbs","broken_rsasha512_prbs","can_eccgost","cannot_eccgost","broken_eccgost","can_eccgost_prbs","cannot_eccgost_prbs","broken_eccgost_prbs","can_ecdsa256","cannot_ecdsa256","broken_ecdsa256","can_ecdsa256_prbs","cannot_ecdsa256_prbs","broken_ecdsa256_prbs","can_ecdsa384","cannot_ecdsa384","broken_ecdsa384","can_ecdsa384_prbs","cannot_ecdsa384_prbs","broken_ecdsa384_prbs","can_ed25519","cannot_ed25519","broken_ed25519","can_ed25519_prbs","cannot_ed25519_prbs","broken_ed25519_prbs","can_ed448","cannot_ed448","broken_ed448","can_ed448_prbs","cannot_ed448_prbs","broken_ed448_prbs","can_gost","cannot_gost","broken_gost","can_gost_prbs","cannot_gost_prbs","broken_gost_prbs","can_sha384","cannot_sha384","broken_sha384","can_sha384_prbs","cannot_sha384_prbs","broken_sha384_prbs","is_internal","is_forwarding","is_external","is_internal_prbs","is_forwarding_prbs","is_external_prbs"
2017-06-20T23:59:59Z,304,479,278,192,477,303,270,186,116,92,0,0,0,0,0,0,2,475,1,301,1,474,1,301,0,0,0,0,0,0,0,0,88,304,86,61,199,68,128,351,0,88,224,1,215,263,0,153,170,1,127,351,0,87,225,1,214,263,0,151,171,1,214,263,0,151,171,1,213,263,0,150,171,1,84,394,0,57,251,1,214,263,0,150,171,1,214,264,0,150,171,1,0,479,0,0,304,1,0,478,1,0,304,2,173,304,0,126,198,1,213,261,0,150,169,1,308,86,85,196,76,56
2017-06-21T23:59:59Z,307,489,282,194,485,306,273,187,122,94,0,0,0,0,0,0,0,488,0,306,1,483,1,304,0,0,0,0,0,0,0,0,86,314,88,60,202,69,129,360,0,89,226,1,218,270,0,155,171,1,130,358,0,90,225,1,218,269,0,155,171,1,218,269,0,155,171,1,218,269,0,155,171,1,84,404,0,58,253,1,216,271,0,153,172,1,216,272,0,153,172,1,0,489,0,0,307,1,0,489,0,0,307,1,174,313,0,127,200,1,216,269,1,153,169,2,314,90,85,198,78,56
2017-06-22T23:59:59Z,305,483,282,193,482,304,276,189,122,93,0,0,0,0,0,0,0,482,0,304,1,478,1,302,0,0,0,0,0,0,0,0,89,306,87,61,200,70,131,352,0,90,224,2,219,263,0,155,169,2,131,352,0,90,224,2,219,263,0,155,169,2,219,263,0,155,169,2,220,263,0,156,169,2,86,397,0,58,252,2,218,264,0,154,169,2,218,264,0,154,169,2,0,483,0,0,305,2,0,483,0,0,305,2,175,307,0,126,199,2,218,261,1,154,166,2,305,91,85,194,80,56
2017-06-23T23:59:59Z,305,482,281,192,480,304,274,187,124,94,0,0,0,0,0,0,0,481,0,304,1,477,2,302,0,0,0,0,0,0,0,0,88,308,85,61,202,66,131,351,0,90,224,0,217,264,0,153,171,0,130,352,0,89,224,1,218,263,0,154,170,1,218,263,0,154,170,1,219,263,0,155,170,1,85,397,0,58,251,1,215,266,0,151,172,1,215,266,0,151,172,1,0,482,0,0,305,1,0,482,0,0,305,1,173,308,0,125,200,1,217,262,0,153,168,1,303,92,85,193,80,55
2017-06-24T23:59:59Z,302,477,279,191,473,300,272,187,121,94,0,0,0,0,0,0,1,475,1,301,1,472,1,299,0,0,0,0,0,0,0,0,84,306,86,58,200,67,127,350,0,87,222,1,214,262,0,151,169,1,127,350,0,87,222,1,215,261,0,152,168,1,214,262,0,151,169,1,215,262,0,152,169,1,81,396,0,55,251,1,213,263,0,150,170,1,213,263,0,150,170,1,0,477,0,0,302,1,0,477,0,0,302,1,170,306,0,123,199,1,214,260,0,151,167,1,299,92,84,191,80,54
2017-06-25T23:59:59Z,301,478,279,190,477,300,272,185,120,92,0,0,0,0,0,0,2,475,1,299,1,473,1,298,0,0,0,0,0,0,0,0,85,305,86,59,199,66,128,350,0,88,220,1,215,262,0,151,168,1,127,351,0,87,222,1,215,262,0,151,168,1,215,262,0,151,168,1,216,262,0,152,168,1,82,396,0,56,250,1,214,263,0,150,169,1,214,263,0,150,169,1,0,478,0,0,301,1,0,478,0,0,301,1,171,306,0,123,198,1,215,260,0,151,166,1,304,90,84,193,77,54
2017-06-26T23:59:59Z,307,486,282,192,484,305,275,187,126,96,0,0,0,0,0,0,2,483,1,305,1,483,1,304,0,0,0,0,0,0,0,0,85,310,88,58,204,68,128,358,0,87,227,1,217,268,0,152,173,1,131,354,0,89,225,1,217,264,3,153,171,3,217,264,3,153,171,3,218,264,3,154,171,3,83,399,3,57,253,3,215,266,3,151,173,3,216,268,1,151,174,2,0,486,0,0,307,2,0,486,0,0,307,2,174,309,1,126,201,2,215,263,4,151,170,4,306,94,84,195,81,54
2017-06-27T23:59:59Z,305,484,279,191,483,304,272,187,125,96,0,0,0,0,0,0,0,483,0,304,1,479,1,302,0,0,0,0,0,0,0,0,86,310,85,60,202,67,129,355,0,89,223,2,215,268,0,152,171,2,128,355,0,88,224,2,215,267,0,152,171,2,215,267,0,152,171,2,216,268,0,153,171,2,83,401,0,57,252,2,213,270,0,150,173,2,213,270,0,150,173,2,0,484,0,0,305,2,0,484,0,0,305,2,171,311,0,124,201,2,214,266,0,151,170,2,307,93,82,194,80,54
2017-06-28T23:59:59Z,304,483,279,191,482,303,271,186,122,93,0,0,0,0,0,0,1,481,1,303,1,478,1,301,0,0,0,0,0,0,0,0,85,310,85,59,202,67,127,356,0,87,224,2,213,269,0,150,172,2,125,356,2,86,224,3,212,270,0,149,173,2,213,269,0,150,172,2,214,269,0,151,172,2,83,400,0,57,251,2,212,270,0,149,173,2,212,270,0,149,173,2,0,483,0,0,304,2,0,483,0,0,304,2,170,310,1,124,200,3,212,266,1,150,170,3,306,93,82,193,80,54
2017-06-29T23:59:59Z,306,487,280,191,486,305,272,186,117,90,0,0,0,0,0,0,3,483,2,304,1,484,1,304,0,0,0,0,0,0,0,0,85,313,86,60,204,66,127,359,1,88,225,2,214,271,1,151,173,2,126,360,1,87,226,2,216,270,0,152,172,1,214,272,0,152,173,1,217,270,0,153,172,1,82,405,0,56,254,1,210,276,0,148,176,1,211,275,0,148,176,1,0,487,0,0,306,1,0,487,0,0,306,1,173,312,0,125,201,1,212,271,0,150,172,1,310,93,82,196,80,53
2017-06-30T23:59:59Z,303,481,278,190,479,302,271,185,116,90,0,0,0,0,0,0,2,478,1,301,1,476,1,300,0,0,0,0,0,0,0,0,85,309,86,58,201,67,126,355,0,86,224,1,213,267,0,150,171,1,126,355,0,86,224,1,214,266,0,151,170,1,213,267,0,151,171,1,215,266,0,152,170,1,82,399,0,56,251,1,213,267,0,150,171,1,213,267,0,150,171,1,0,481,0,0,303,1,0,481,0,0,303,1,171,309,0,124,199,1,213,265,0,150,169,1,303,93,83,193,80,53
2017-07-01T23:59:59Z,302,480,276,188,478,300,270,184,122,92,0,0,0,0,0,0,5,474,3,298,1,477,1,300,0,0,0,0,0,0,0,0,87,307,85,61,200,65,128,352,0,89,221,1,214,265,0,150,170,1,125,355,0,86,223,1,215,264,0,151,169,1,215,264,0,151,169,1,216,264,0,152,169,1,79,401,0,55,251,1,212,267,0,148,172,1,212,267,0,148,172,1,0,480,0,0,302,1,0,480,0,0,302,1,170,309,0,123,199,1,213,264,0,149,169,1,302,91,85,193,78,54
2017-07-02T23:59:59Z,304,483,278,189,482,303,272,185,123,94,0,0,0,0,0,0,6,476,4,300,1,480,1,302,0,0,0,0,0,0,0,0,87,309,85,60,202,64,128,355,0,88,223,1,214,268,0,149,172,1,128,355,0,88,224,1,217,265,0,152,169,1,216,266,0,151,170,1,217,266,0,152,170,1,83,400,0,57,252,1,214,268,0,149,172,1,214,268,0,149,172,1,0,483,0,0,304,1,0,483,0,0,304,1,172,309,0,123,200,1,215,264,0,150,169,1,307,90,84,195,77,54
2017-07-03T23:59:59Z,301,482,280,189,480,299,273,184,127,95,0,0,0,0,0,0,3,478,2,299,1,477,1,298,0,0,0,0,0,0,0,0,90,303,87,61,196,66,131,351,0,89,219,1,219,262,0,152,166,1,131,351,0,89,219,1,219,262,0,152,166,1,218,263,0,152,167,1,220,262,0,153,166,1,86,396,0,58,247,1,217,264,0,150,168,1,217,264,0,150,168,1,0,482,0,0,301,1,0,482,0,0,301,1,176,304,0,125,195,1,218,260,0,151,165,1,304,92,84,191,79,54
2017-07-04T23:59:59Z,302,485,280,190,484,301,272,185,120,92,0,0,0,0,0,0,5,479,3,299,1,482,1,300,0,0,0,0,0,0,0,0,90,306,88,61,197,66,131,354,0,89,221,1,220,264,0,153,167,1,131,354,0,89,221,1,219,265,0,152,168,1,219,265,0,152,168,1,220,265,0,153,168,1,85,400,0,57,249,1,217,267,0,150,169,1,217,267,0,150,169,1,0,485,0,0,302,1,0,485,0,0,302,1,175,309,0,124,197,1,220,264,0,153,166,2,310,89,84,195,76,54
2017-07-05T23:59:59Z,301,484,279,189,483,300,273,185,118,91,0,0,0,0,0,0,2,481,1,299,1,481,1,299,0,0,0,0,0,0,0,0,88,309,86,60,199,65,132,352,0,90,220,0,219,264,0,152,167,0,132,352,0,90,220,0,219,264,0,152,167,0,218,265,0,152,168,0,220,264,0,153,167,0,84,400,0,56,249,0,216,267,0,149,169,0,216,267,0,149,169,0,0,484,0,0,301,0,0,484,0,0,301,0,171,312,0,121,200,0,219,264,0,152,166,0,309,91,82,193,78,53
2017-07-06T23:59:59Z,300,481,275,188,480,299,263,182,123,94,0,0,0,0,0,0,0,480,0,299,1,473,1,295,0,0,0,0,0,0,0,0,85,309,85,60,199,65,128,352,1,89,219,1,214,265,1,151,167,1,128,352,1,89,219,1,215,265,0,151,167,0,215,265,0,151,167,0,216,265,0,152,167,0,82,399,0,56,248,0,212,268,0,148,169,0,212,268,0,148,169,0,0,481,0,0,300,0,0,481,0,0,300,0,167,311,1,121,199,1,214,265,0,150,167,0,308,89,82,194,76,53
2017-07-07T23:59:59Z,302,487,274,187,486,301,268,183,119,93,0,0,0,0,0,0,3,483,2,300,1,482,1,299,0,0,0,0,0,0,0,0,87,315,83,61,202,63,130,357,0,90,220,0,215,271,0,151,170,0,128,359,0,88,222,0,215,271,0,151,170,0,215,271,0,151,170,0,216,271,0,152,170,0,81,406,0,55,251,0,213,273,0,149,171,0,213,273,0,149,171,0,0,487,0,0,302,0,0,487,0,0,302,0,168,317,0,121,202,0,215,270,0,151,169,0,314,89,82,197,75,53
2017-07-08T23:59:59Z,301,487,275,186,485,300,269,182,120,91,0,0,0,0,0,0,2,484,1,299,1,484,1,299,0,0,0,0,0,0,0,0,88,313,84,61,201,64,128,359,0,89,221,0,216,270,0,150,169,0,129,358,0,90,221,0,217,269,0,151,168,0,217,269,0,151,168,0,218,269,0,152,168,0,83,404,0,57,249,0,214,273,0,148,171,0,214,272,0,148,170,0,0,487,0,0,301,0,0,487,0,0,301,0,171,315,0,122,200,0,216,269,0,150,168,0,314,88,83,196,74,54
2017-07-09T23:59:59Z,302,491,280,187,485,300,274,183,118,90,0,0,0,0,0,0,3,487,2,300,1,486,2,299,0,0,0,0,0,0,0,0,91,311,87,62,200,65,132,359,0,90,221,1,222,268,0,152,168,0,131,360,0,89,222,1,224,266,0,154,166,0,223,267,0,153,167,0,224,267,0,154,167,0,83,408,0,55,251,0,221,270,0,151,169,0,221,269,0,151,168,0,0,491,0,0,302,0,0,491,0,0,302,0,175,315,0,123,200,0,222,267,0,152,167,1,316,88,85,196,74,55
2017-07-10T23:59:59Z,304,489,277,187,488,303,271,183,116,91,0,0,0,0,0,0,3,485,2,302,1,486,2,302,0,0,0,0,0,0,0,0,92,311,85,63,200,66,132,357,0,90,222,1,220,268,0,153,169,1,131,358,0,89,223,1,221,267,0,154,168,1,221,267,0,154,168,1,221,268,0,154,169,1,84,405,0,56,252,1,218,271,0,151,171,1,218,270,0,151,170,1,0,489,0,0,304,1,0,489,0,0,304,1,172,316,0,122,202,1,217,270,0,151,170,1,314,89,84,197,75,55
2017-07-11T23:59:59Z,302,484,277,187,483,301,270,183,124,94,0,0,0,0,0,0,2,481,1,300,1,482,1,300,0,0,0,0,0,0,0,0,91,305,87,62,197,66,132,352,0,90,220,0,221,262,0,154,166,0,130,354,0,88,222,0,220,263,0,153,167,0,220,263,0,153,167,0,221,263,0,154,167,0,83,401,0,55,251,0,219,265,0,152,168,0,219,264,0,152,167,0,0,484,0,0,302,0,0,484,0,0,302,0,173,310,0,123,199,0,217,265,0,151,168,0,307,91,84,194,78,55
2017-07-12T23:59:59Z,303,489,280,187,486,301,274,183,124,95,0,0,0,0,0,0,2,486,1,301,1,485,1,300,0,0,0,0,0,0,0,0,93,309,86,63,199,66,131,358,0,89,222,0,220,268,0,153,169,0,130,359,0,88,223,0,220,268,0,153,169,0,220,268,0,153,169,0,221,268,0,154,169,0,85,404,0,56,251,0,217,272,0,150,172,0,217,271,0,150,171,0,0,489,0,0,303,0,0,489,0,0,303,0,174,314,0,123,201,0,219,268,0,152,169,0,315,88,86,198,74,56
2017-07-13T23:59:59Z,303,486,279,188,485,302,273,184,123,94,0,0,0,0,0,0,0,485,0,302,1,480,1,299,0,0,0,0,0,0,0,0,88,305,92,60,198,70,130,356,0,88,223,0,225,260,0,157,166,0,131,355,0,89,222,0,224,261,0,156,167,0,224,261,0,156,167,0,225,261,0,157,167,0,84,402,0,56,251,0,222,264,0,154,169,0,222,263,0,154,168,0,0,486,0,0,303,0,0,486,0,0,303,0,178,307,0,127,198,0,223,261,0,155,167,0,309,88,87,196,74,56
2017-07-14T23:59:59Z,300,479,277,186,473,297,271,182,122,93,0,0,0,0,0,0,0,478,0,299,1,475,1,297,0,0,0,0,0,0,0,0,90,298,90,61,197,68,128,351,0,87,221,0,220,258,0,153,168,0,127,352,0,86,222,0,220,258,0,153,168,0,220,258,0,153,168,0,221,258,0,154,168,0,83,396,0,55,249,0,219,260,0,152,169,0,219,259,0,152,168,0,0,479,0,0,300,0,0,479,0,0,300,0,177,301,0,126,197,0,220,258,0,153,167,0,303,89,87,194,75,56
2017-07-15T23:59:59Z,304,489,282,189,487,302,275,184,128,98,0,0,0,0,0,0,2,486,1,302,1,485,1,301,0,0,0,0,0,0,0,0,94,305,89,63,199,68,135,354,0,90,222,0,227,261,0,156,168,0,134,355,0,89,223,0,228,260,0,157,167,0,227,261,0,156,168,0,228,261,0,157,168,0,88,401,0,57,251,0,225,264,0,154,170,0,225,263,0,154,169,0,0,489,0,0,304,0,0,489,0,0,304,0,181,307,0,127,199,0,226,262,0,155,168,0,314,88,85,199,73,55
2017-07-16T23:59:59Z,305,491,280,188,490,304,273,183,121,94,0,0,0,0,0,0,2,488,1,303,1,487,2,302,0,0,0,0,0,0,0,0,93,310,87,63,200,67,136,355,0,91,223,0,226,264,0,156,169,0,135,356,0,90,224,0,227,263,0,157,168,0,226,263,0,156,168,0,227,263,0,157,168,0,90,401,0,59,251,0,225,266,0,155,170,0,225,265,0,155,169,0,0,491,0,0,305,0,0,491,0,0,305,0,181,308,1,128,198,1,225,265,0,155,169,0,317,90,82,201,74,54
2017-07-17T23:59:59Z,310,500,284,191,499,309,276,185,126,96,0,0,0,0,0,0,6,493,3,306,1,496,1,307,0,0,0,0,0,0,0,0,92,316,91,62,204,70,133,367,0,89,229,0,228,271,0,158,172,0,133,367,0,89,229,0,227,272,0,157,173,0,226,272,0,156,173,0,228,272,0,158,173,0,88,412,0,58,256,0,224,276,0,154,176,0,224,275,0,154,175,0,0,500,0,0,310,0,0,500,0,0,310,0,182,317,0,129,203,0,226,271,1,156,172,1,318,93,87,201,77,56
2017-07-18T23:59:59Z,311,505,289,193,502,309,281,187,124,95,0,0,0,0,0,0,5,499,3,308,2,502,2,309,0,0,0,0,0,0,0,0,94,321,89,63,206,67,136,369,0,91,228,0,227,277,0,156,175,0,136,369,0,91,228,0,229,275,0,158,173,0,228,275,0,157,173,0,229,275,1,159,173,1,91,414,0,60,255,0,225,280,0,154,177,0,225,279,0,154,176,0,0,505,0,0,311,0,0,505,0,0,311,0,183,321,0,129,204,0,227,276,0,156,174,0,321,95,87,201,79,56
2017-07-19T23:59:59Z,307,491,279,191,489,305,272,186,122,94,0,0,0,0,0,0,0,490,0,306,1,489,1,305,0,0,0,0,0,0,0,0,91,314,85,62,202,66,131,360,0,88,226,0,219,271,0,153,172,0,132,359,0,89,225,0,219,271,0,153,172,0,218,271,0,152,172,0,220,271,0,154,172,0,88,403,0,59,252,0,216,275,0,150,175,0,216,274,0,150,174,0,0,491,0,0,307,0,0,491,0,0,307,0,175,315,0,125,201,0,218,272,0,152,172,0,317,94,80,200,78,53
2017-07-20T23:59:59Z,310,497,283,193,495,309,275,187,118,91,0,0,0,0,0,0,0,496,0,309,1,493,1,307,0,0,0,0,0,0,0,0,94,316,86,63,203,66,135,362,0,90,227,0,223,273,0,155,173,0,136,361,0,91,227,0,224,272,0,156,172,0,222,273,0,154,173,0,224,273,0,156,173,0,93,404,0,62,253,0,220,277,0,152,176,0,220,276,0,152,175,0,0,497,0,0,310,0,0,497,0,0,310,0,179,317,0,127,202,0,220,276,0,153,174,0,322,95,80,202,79,53
2017-07-21T23:59:59Z,309,491,281,192,490,308,274,187,125,98,0,0,0,0,0,0,0,490,0,308,1,489,1,307,0,0,0,0,0,0,0,0,92,312,86,62,202,67,134,357,0,89,226,0,223,267,0,155,171,0,134,357,0,89,226,0,222,268,0,154,172,0,220,269,0,152,173,0,222,269,0,154,173,0,90,401,0,59,253,0,219,272,0,151,175,0,219,271,0,151,174,0,0,491,0,0,309,0,0,491,0,0,309,0,178,312,0,126,201,0,220,270,0,152,173,0,311,98,80,197,82,53
2017-07-22T23:59:59Z,309,488,281,193,487,308,274,188,127,100,0,0,0,0,0,0,1,486,1,308,1,484,1,306,0,0,0,0,0,0,0,0,88,312,86,60,204,66,132,356,0,89,226,1,220,266,0,154,172,0,133,355,0,90,225,0,221,265,0,155,171,0,220,265,0,154,171,0,222,265,0,156,171,0,89,399,0,59,253,1,220,267,0,153,173,1,220,266,0,153,172,1,0,488,0,0,309,1,0,488,0,0,309,1,177,309,0,126,201,1,222,264,0,155,170,1,305,101,80,195,85,53
2017-07-23T23:59:59Z,312,491,285,195,489,310,277,189,125,97,0,0,0,0,0,0,0,490,0,311,1,487,1,309,0,0,0,0,0,0,0,0,92,310,88,63,203,68,134,357,0,91,227,0,225,265,0,158,171,0,134,357,0,91,227,0,226,264,0,159,170,0,225,264,0,158,170,0,225,265,0,158,171,0,91,400,0,60,255,1,225,265,0,157,171,1,225,265,0,157,171,1,0,491,0,0,312,1,0,491,0,0,312,1,183,307,0,130,200,1,227,262,0,158,169,1,306,101,82,196,85,54
2017-07-24T23:59:59Z,316,507,289,196,505,315,281,190,132,100,0,0,0,0,0,0,2,504,1,314,1,503,1,313,0,0,0,0,0,0,0,0,95,321,90,64,205,69,138,369,0,92,231,0,231,275,0,160,174,0,138,369,0,92,231,0,232,274,0,161,173,0,231,274,0,161,173,0,232,274,0,161,173,0,92,415,0,60,260,0,220,286,0,153,183,0,228,278,0,157,176,0,0,507,0,0,316,0,0,507,0,0,316,0,175,331,0,122,213,0,227,278,0,157,175,0,317,101,87,200,85,56
2017-07-25T23:59:59Z,313,502,281,193,499,311,272,186,131,101,0,0,0,0,0,0,3,498,2,311,1,500,1,311,0,0,0,0,0,0,0,0,88,325,88,61,207,68,132,370,0,90,231,0,223,278,0,157,175,0,133,369,0,91,230,0,223,278,0,157,175,0,222,279,0,156,176,0,222,279,0,156,176,0,87,415,0,59,259,0,220,281,0,154,177,0,220,281,0,154,177,0,0,502,0,0,313,0,0,502,0,0,313,0,177,324,0,127,206,0,221,279,0,155,175,0,314,100,86,198,84,55
2017-07-26T23:59:59Z,313,502,281,194,500,311,273,189,122,96,0,0,0,0,0,0,0,501,0,312,1,500,1,311,0,0,0,0,0,0,0,0,91,322,88,62,204,69,134,368,0,91,230,0,224,277,0,159,173,0,133,369,0,90,231,0,222,279,0,157,175,0,222,279,0,157,175,0,222,279,0,157,175,0,87,415,0,58,260,0,222,279,0,157,174,0,222,279,0,157,174,0,0,502,0,0,313,0,0,502,0,0,313,0,176,325,0,127,206,0,221,279,0,156,174,0,315,100,85,197,84,56
2017-07-27T23:59:59Z,313,501,283,195,500,312,274,189,118,94,0,0,0,0,0,0,0,498,0,311,1,495,1,309,0,0,0,0,0,0,0,0,92,321,87,64,204,67,134,367,0,92,229,0,224,276,0,159,173,0,133,368,0,91,231,0,223,277,0,158,174,0,223,277,0,158,174,0,223,277,0,158,174,0,87,414,0,59,260,0,221,279,0,156,175,0,221,279,0,156,175,0,0,501,0,0,313,0,0,501,0,0,313,0,175,323,0,127,205,0,221,276,0,157,172,0,313,99,87,196,83,57
2017-07-28T23:59:59Z,312,500,281,194,499,311,272,188,122,97,0,0,0,0,0,0,3,496,2,310,1,496,1,309,0,0,0,0,0,0,0,0,88,323,88,61,204,69,133,367,0,91,229,0,223,276,0,159,172,0,133,367,0,91,229,0,222,277,0,158,173,0,222,277,0,158,173,0,222,277,0,158,173,0,87,413,0,59,258,0,221,278,0,157,173,0,221,277,1,157,173,1,0,500,0,0,312,0,0,500,0,0,312,0,175,324,0,127,205,0,219,279,0,156,173,0,314,99,85,196,83,56
2017-07-29T23:59:59Z,310,498,284,196,496,309,275,190,124,98,0,0,0,0,0,0,2,495,1,308,1,496,1,308,0,0,0,0,0,0,0,0,91,317,89,63,201,70,133,365,0,92,227,1,225,272,0,160,169,1,133,365,0,92,227,1,223,274,0,158,171,1,223,274,0,158,171,1,223,274,0,158,171,1,89,409,0,61,254,1,220,277,0,155,173,1,220,277,0,155,173,1,0,498,0,0,310,1,0,498,0,0,310,1,179,318,0,130,201,0,221,275,0,156,171,0,312,97,87,196,82,57
2017-07-30T23:59:59Z,310,498,284,195,497,309,275,189,124,98,0,0,0,0,0,0,3,494,2,308,1,492,1,306,0,0,0,0,0,0,0,0,90,318,89,62,202,69,133,365,0,91,228,0,223,274,0,157,172,0,132,366,0,90,229,0,225,272,0,159,170,0,225,272,0,159,170,0,225,272,0,159,170,0,88,410,0,59,256,0,222,275,0,156,172,0,222,275,0,156,172,0,0,498,0,0,310,0,0,498,0,0,310,0,180,317,0,130,201,0,223,273,0,157,170,0,315,96,85,196,81,56
2017-07-31T23:59:59Z,311,501,287,195,500,310,276,189,125,98,0,0,0,0,0,0,2,498,1,309,1,497,1,308,0,0,0,0,0,0,0,0,96,314,90,65,200,70,135,366,0,91,229,0,227,273,0,159,172,0,135,366,0,91,229,0,226,274,0,158,173,0,226,274,0,158,173,0,226,274,0,158,173,0,93,408,0,62,254,0,225,275,0,157,173,0,225,275,0,157,173,0,0,501,0,0,311,0,0,501,0,0,311,0,184,316,0,132,201,0,225,274,0,157,172,0,315,98,86,196,83,57
2017-08-01T23:59:59Z,311,503,289,195,499,310,278,189,127,97,0,0,0,0,0,0,0,502,0,310,1,501,1,309,0,0,0,0,0,0,0,0,96,314,91,65,201,70,133,369,0,90,231,0,227,274,0,158,173,0,132,370,0,89,232,0,227,274,0,158,173,0,227,274,0,158,173,0,227,274,0,158,173,0,92,410,0,61,255,0,224,277,0,155,175,0,224,278,0,155,175,0,0,503,0,0,311,0,0,503,0,0,311,0,184,318,0,131,203,0,227,274,0,157,172,0,315,100,86,197,84,57
2017-08-02T23:59:59Z,310,501,287,194,500,309,275,187,120,93,0,0,0,0,0,0,1,499,1,309,1,495,1,306,0,0,0,0,0,0,0,0,94,317,89,63,202,69,136,365,0,91,228,0,227,273,0,158,172,0,137,363,0,92,227,0,228,271,0,159,171,0,227,272,0,158,172,0,227,272,0,158,172,0,92,408,0,61,254,0,226,273,0,157,172,0,226,274,0,157,172,0,0,501,0,0,310,0,0,501,0,0,310,0,184,316,0,132,200,0,228,271,0,159,169,0,316,99,84,197,82,55
2017-08-03T23:59:59Z,312,504,288,194,503,311,280,189,123,95,0,0,0,0,0,0,2,501,1,310,1,502,1,310,0,0,0,0,0,0,0,0,93,323,87,63,205,67,135,369,0,91,229,0,223,279,0,156,175,0,135,368,0,91,228,0,224,278,0,157,174,0,223,278,0,156,175,0,223,278,0,156,175,0,93,410,0,62,255,0,222,280,0,155,175,0,222,280,0,155,175,0,0,504,0,0,312,0,0,504,0,0,312,0,183,320,0,131,202,0,224,278,0,157,173,0,317,100,85,197,83,55
2017-08-04T23:59:59Z,312,504,289,194,503,311,281,189,129,100,0,0,0,0,0,0,4,499,2,309,1,500,1,309,0,0,0,0,0,0,0,0,97,319,87,67,202,68,137,367,0,93,229,0,227,275,0,159,172,0,135,368,0,91,229,0,226,276,0,158,173,0,226,276,0,158,173,0,226,276,0,158,173,0,94,410,0,63,255,0,225,278,0,157,174,0,224,278,0,156,174,0,0,504,0,0,312,0,0,504,0,0,312,0,183,320,0,130,203,0,226,276,0,158,172,0,317,100,85,199,83,55
2017-08-05T23:59:59Z,311,501,289,195,497,308,280,190,123,96,0,0,0,0,0,0,4,496,2,308,1,498,1,308,0,0,0,0,0,0,0,0,94,320,86,64,204,66,134,367,0,91,228,0,223,277,0,157,174,0,133,367,0,90,228,0,223,276,0,157,173,0,222,277,0,156,174,0,222,277,0,156,174,0,93,408,0,62,254,0,222,278,0,156,174,0,221,278,0,155,174,1,0,501,0,0,311,1,0,501,0,0,311,1,183,317,0,131,201,0,225,274,0,158,171,0,314,101,84,196,84,54
2017-08-06T23:59:59Z,311,500,293,197,499,310,285,192,121,94,0,0,0,0,0,0,2,497,1,309,1,497,1,308,0,0,0,0,0,0,0,0,98,315,86,66,202,66,140,360,0,94,225,0,229,270,0,160,171,0,138,361,0,92,226,0,228,270,0,159,171,0,229,269,0,160,170,0,229,269,0,160,170,0,95,405,0,62,254,0,228,271,0,159,171,0,227,271,0,158,171,0,0,500,0,0,311,0,0,500,0,0,311,0,185,314,0,131,201,0,228,270,0,159,170,0,315,99,84,198,82,54
2017-08-07T23:59:59Z,313,505,293,197,503,311,285,192,121,95,0,0,0,0,0,0,2,502,1,311,1,498,1,308,0,0,0,0,0,0,0,0,96,321,87,65,204,67,140,365,0,94,227,0,230,274,0,161,172,0,140,364,0,94,226,0,230,273,0,161,171,0,229,274,0,160,172,0,229,274,0,160,172,0,97,408,0,64,254,0,227,277,0,158,174,0,227,277,0,158,174,0,0,505,0,0,313,0,0,505,0,0,313,0,185,319,0,131,203,0,228,275,0,159,172,0,320,99,84,201,82,54
2017-08-08T23:59:59Z,312,506,293,197,503,310,283,190,120,93,0,0,0,0,0,0,2,502,1,310,1,502,1,309,0,0,0,0,0,0,0,0,96,324,84,65,205,65,141,364,0,94,226,0,228,276,0,159,173,0,141,363,0,94,225,0,227,276,0,158,173,0,228,275,0,159,172,0,228,276,0,159,172,0,96,409,0,63,254,0,226,278,0,157,174,0,226,279,0,157,174,0,0,506,0,0,312,0,0,506,0,0,312,0,183,321,0,130,203,0,227,276,0,158,172,0,323,101,82,200,84,53
2017-08-09T23:59:59Z,312,505,290,197,502,311,279,190,123,95,0,0,0,0,0,0,2,499,1,310,1,502,1,309,0,0,0,0,0,0,0,0,98,317,86,66,202,67,139,364,0,93,226,0,229,273,0,161,172,0,138,364,0,92,226,0,231,272,0,162,171,0,230,273,0,161,172,0,231,272,0,162,171,0,96,409,0,63,253,0,230,274,0,160,173,0,230,274,0,160,173,0,0,505,0,0,312,0,0,505,0,0,312,0,186,316,0,133,201,0,227,274,0,158,173,0,320,101,80,199,84,52
2017-08-10T23:59:59Z,315,513,292,197,509,314,280,189,124,97,0,0,0,0,0,0,4,505,2,312,1,510,1,312,0,0,0,0,0,0,0,0,95,325,89,63,206,68,142,369,0,94,228,0,234,276,0,162,173,0,141,369,0,93,228,0,235,276,0,162,173,0,235,276,0,162,173,0,235,276,0,162,173,0,96,417,0,62,257,0,235,277,0,162,173,0,236,276,0,163,172,0,0,513,0,0,315,0,0,513,0,0,315,0,187,323,0,131,205,0,230,279,0,160,174,0,328,100,81,203,83,52
2017-08-11T23:59:59Z,315,512,290,197,508,314,279,189,127,97,0,0,0,0,0,0,4,504,2,312,1,504,1,309,0,0,0,0,0,0,0,0,94,327,87,63,207,67,139,371,0,93,229,0,229,280,0,160,175,0,139,370,0,93,228,0,231,279,0,161,174,0,231,279,0,161,174,0,231,279,0,161,174,0,96,416,0,63,256,0,230,281,0,160,175,0,229,282,0,159,176,0,0,512,0,0,315,0,0,512,0,0,315,0,187,322,0,133,203,0,226,281,1,158,175,1,324,103,81,200,87,52
2017-08-12T23:59:59Z,310,504,286,194,499,308,276,187,119,93,0,0,0,0,0,0,4,496,2,307,1,499,1,306,0,0,0,0,0,0,0,0,93,321,86,62,203,67,139,363,0,92,225,0,228,273,0,159,171,0,137,364,0,90,226,0,229,273,0,159,171,0,229,273,0,159,171,0,229,273,0,159,171,0,93,411,0,60,254,0,227,276,0,157,173,0,227,276,0,157,173,0,0,504,0,0,310,0,0,504,0,0,310,0,184,317,0,131,200,0,226,274,0,157,171,0,320,101,79,198,84,51